{"data":{"norad_id":68125,"intl_designator":"2026-044AA","name":"STARLINK-36839","alt_names":[],"object_type":"PAYLOAD","status":"ACTIVE","operator":null,"country":"US","launch_date":"2026-03-08","launch_site_code":"AFWTR","launch_vehicle":null,"mission":null,"orbit_class":"UNKNOWN","rcs_meters":null,"size_class":null,"mass_kg":null,"dimensions":null,"purposes":["comms"],"wikipedia_slug":null,"has_3d_model":false,"image_url":null,"decayed_at":null,"tle_current":{"epoch":"2026-09-19T15:56:39.320736Z","epoch_age_seconds":128396,"freshness":"FRESH","line1":"1 68125U 26044AA  26262.66434399  .00016329  00000+0  50675-3 0  9996","line2":"2 68125  97.2843 221.6881 0002681  87.6648 272.4902 15.33459518 31319","mean_motion":15.33459518,"eccentricity":0.0002681,"inclination_deg":97.2843,"raan_deg":221.6881,"arg_perigee_deg":87.6648,"mean_anomaly_deg":272.4902,"bstar":0.00050675,"rev_number":3131,"period_min":93.905315601556,"perigee_km":463.66520039101,"apogee_km":467.3347585394,"semimajor_km":6843.6369794652,"source":"CELESTRAK","updated_at":"2026-09-20T09:00:43.790662Z"}}}